Regional Weather Roundup
Issued by NWS Newport/Morehead, NC

Current Version | Previous Version | Text Only | Print | Product List | Glossary On
Versions: 1 2 3 4 5 6 7 8 9 10 11 12 13 14 15 16 17 18 19 20 21 22 23 24 25 26 27 28 29 30 31 32 33 34 35 36 37 38 39 40 41 42 43 44 45 46 47 48 49 50
000
ASUS42 KMHX 250813
RWRMHX
WEATHER ROUNDUP FOR EASTERN NORTH CAROLINA
NATIONAL WEATHER SERVICE NEWPORT/MOREHEAD CITY NC
400 AM EDT SUN JUN 25 2017

NOTE: "FAIR" INDICATES FEW OR NO CLOUDS BELOW 12,000 FEET
WITH NO SIGNIFICANT WEATHER AND/OR OBSTRUCTIONS TO VISIBILITY

NCZ015>017-031-032-045>047-102-103-250900-
NORTH COAST

CITY           SKY/WX    TMP DP  RH WIND       PRES   REMARKS
EDENTON        CLOUDY    76  73  90 CALM      29.99S
ELIZABETH CITY CLOUDY    73  73 100 CALM      29.98S
KITTY HAWK     CLOUDY    74  74 100 W5        29.97S
MANTEO         CLOUDY    74  72  93 W3        29.99S

$$

NCZ045>047-081-094-103-104-250900-
CENTRAL COAST

CITY           SKY/WX    TMP DP  RH WIND       PRES   REMARKS
FRISCO         CLOUDY    76  74  93 W10G21    29.99S

$$

NCZ095-097-098-100-101-250900-
SOUTHERN COAST

CITY           SKY/WX    TMP DP  RH WIND       PRES   REMARKS
BEAUFORT       CLOUDY    77  75  93 SW12      30.00S
CEDAR ISLAND   NOT AVBL
JACKSONVILLE   CLOUDY    75  75 100 W3        30.00R
PINEY ISLAND   CLOUDY   N/A N/A N/A SW6       29.99F
WILMINGTON     CLOUDY    77  76  96 SW7       30.01S


$$

NCZ011>013-027>030-043-044-078>080-089-090>093-098-250900-
COASTAL PLAIN

CITY           SKY/WX    TMP DP  RH WIND       PRES   REMARKS
AHOSKIE          N/A     69  69  99 CALM      30.00S
CLINTON        CLOUDY    73  73 100 CALM      30.01S
ELIZABETHTOWN  NOT AVBL
GOLDSBORO      CLOUDY    73  73 100 W3        29.98F
GREENVILLE     CLOUDY    73  73 100 W3        30.02R
HAVELOCK       RAIN      75  73  93 SW7       30.01S
KENANSVILLE    CLOUDY    73  72  94 CALM      30.00F FOG
KINSTON        CLOUDY    73  73  98 CALM      30.01S
NEW BERN       CLOUDY    74  74 100 SW5       30.01S
RICHLANDS      LGT RAIN  75  74  96 SW3       30.01R
ROCKY MOUNT    CLOUDY    72  72 100 W3        30.01F
WASHINGTON     CLOUDY   N/A N/A N/A W6        30.00R
WHITEVILLE     CLOUDY    76  73  92 SW6       30.01S

$$

AMZ130-135-150-152-154-156-158-170-250-252-270-ANZ085-086-088-633-658-670-250900-
MARINE OBSERVATIONS

STATION/POSITION TIME  TEMP    WIND        PRES    WAVE   SWELL
                       AIR SEA DIR/SP/G            HT/PER HT/PER
                 (UTC) (F)     (DEG/KT/KT) (MB)    (FT/S) (FT/S)
CHESAPEAKE LIGHT NOT AVBL
64 E VA BEACH    0750   72 72  210/  8/  8 1015.2    4/ 8   3/ 8
DUCK             0748   76 60  240/  9/ 11 1014.6
2 E DUCK         NOT AVBL
OREGON INLET     0748          270/  7/ 10   N/A
13E OREGON INLT  0748      74                N/A     4/ 7   3/ 7
HATTERAS CG      0748   75 79  240/ 12/ 18 1015.2
DIAMOND BUOY     0750   78 80  240/ 21/ 27 1015.0    5/ 7   2/ 9
CAPE LOOKOUT     0800   78     230/  9/ 13 1015.7
BEAUFORT LAB     0748   76 79  240/  5/ 10 1015.2
30 SE NEW RVR IN 0708   78 80  250/ 14/ 17 1016.7
30 SE NEW RVR IN 0743      80                N/A     6/ 6
27 SE WRIGHTSVLE 0708   78 80  230/ 14/ 19 1015.5
5 SE WRIGHTSVLE  0708   79 79  230/  8/ 14 1016.0
225 S CAPE HAT   0750   80 80  200/ 14/ 16 1018.9    5/ 5   2/ 8
41 SE CHARLESTON 0750   81 80  230/ 14/ 17 1017.1    4/ 5   2/ 8

$$




USA.gov is the U.S. government's official web portal to all federal, state and local government web resources and services.